Location: North Evanston
(42.0634°N, 87.6976°W)
Time: 00:51:21
(UTC+00:00)

S-56A Canister/Altair - All Passes

Search period start: 12 May 2026 00:00
Search period end: 22 May 2026 00:00
Orbit: 633 x 2484 km, 38.9° (Epoch: 11 May)

Date Brightness Start Highest point End Pass type
(mag) Time Alt. Az. Time Alt. Az. Time Alt. Az.
12 May - 02:06:15 10° S 02:09:12 17° SSE 02:12:11 10° ESE visible
12 May - 04:07:32 10° WSW 04:11:54 51° SSE 04:17:15 10° E visible
12 May - 06:10:14 10° W 06:15:13 61° S 06:22:15 10° ESE visible
12 May - 08:13:18 10° W 08:18:55 36° SSW 08:26:53 10° SE visible
12 May - 10:18:57 10° WSW 10:22:52 14° SW 10:27:28 10° S daylight
13 May - 01:32:06 10° S 01:34:29 14° SSE 01:36:52 10° ESE visible
13 May - 03:32:56 10° WSW 03:37:10 46° SSE 03:42:04 10° E visible
13 May - 05:35:39 10° W 05:40:22 62° S 05:46:49 10° ESE visible
13 May - 07:38:38 10° W 07:43:56 38° SSW 07:51:27 10° SE visible
13 May - 09:43:38 10° WSW 09:47:47 15° SSW 09:52:46 10° S visible
14 May - 00:58:11 10° SSE 00:59:47 12° SSE 01:01:19 10° SE daylight
14 May - 02:58:19 10° SW 03:02:28 40° SSE 03:06:59 10° E visible
14 May - 05:01:02 10° W 05:05:34 62° S 05:11:28 10° ESE visible
14 May - 07:04:00 10° W 07:09:01 40° SSW 07:16:02 10° SE visible
14 May - 09:08:31 10° WSW 09:12:44 17° SSW 09:17:56 10° S visible
15 May - 02:23:39 10° SW 02:27:47 35° SSE 02:31:58 10° E visible
15 May - 04:26:23 10° W 04:30:49 61° S 04:36:14 10° E visible
15 May - 06:29:22 10° W 06:34:08 42° SSW 06:40:41 10° SE visible
15 May - 08:33:31 10° WSW 08:37:44 18° SSW 08:42:59 10° S visible
16 May - 01:48:58 10° SW 01:53:06 31° SSE 01:57:02 10° E visible
16 May - 03:51:43 10° WSW 03:56:04 60° S 04:01:05 10° E visible
16 May - 05:54:44 10° W 05:59:19 45° SSW 06:05:23 10° SE night (unlit)
16 May - 07:58:37 10° WSW 08:02:46 20° SSW 08:08:00 10° SSE visible
17 May - 01:14:14 10° SW 01:18:22 27° SSE 01:22:09 10° E daylight
17 May - 03:16:59 10° WSW 03:21:21 57° S 03:26:04 10° E visible
17 May - 05:20:06 10° W 05:24:31 47° SSW 05:30:09 10° ESE visible
17 May - 07:23:48 10° WSW 07:27:52 21° SSW 07:33:00 10° SSE night (unlit)
18 May - 00:39:28 10° SSW 00:43:39 24° SSE 00:47:19 10° E daylight
18 May - 02:42:11 10° WSW 02:46:38 55° S 02:51:07 10° E visible
18 May - 04:45:26 10° W 04:49:45 50° S 04:55:01 10° ESE visible
18 May - 06:49:00 10° WSW 06:53:00 23° SSW 06:58:00 10° SSE night (unlit)
19 May - 00:04:41 10° SSW 00:08:53 22° SSE 00:12:29 10° ESE daylight
19 May - 02:07:19 10° WSW 02:11:55 51° S 02:16:15 10° E visible
19 May - 04:10:43 10° W 04:15:01 53° S 04:19:57 10° ESE visible
19 May - 06:14:14 10° WSW 06:18:10 24° SSW 06:23:01 10° SSE night (unlit)
19 May - 23:29:51 10° SSW 23:34:06 20° SSE 23:37:39 10° ESE daylight
20 May - 01:32:23 10° WSW 01:37:12 48° SSE 01:41:28 10° E visible
20 May - 03:35:56 10° W 03:40:18 55° S 03:44:58 10° ESE visible
20 May - 05:39:29 10° W 05:43:22 27° SSW 05:48:04 10° SSE visible
20 May - 22:55:01 10° SSW 22:59:17 18° SSE 23:02:48 10° ESE daylight
21 May - 00:57:22 10° WSW 01:02:28 45° SSE 01:06:43 10° E daylight
21 May - 03:01:06 10° W 03:05:35 57° S 03:10:04 10° ESE visible
21 May - 05:04:42 10° W 05:08:37 29° SSW 05:13:10 10° SE visible
21 May - 22:20:11 10° S 22:24:24 17° SSE 22:27:54 10° ESE daylight
